User: anonymous   Login
Location: B�retswil
(47.3376°N, 8.8534°E)
Time: 16:26:03
(UTC+00:00)
Language:

Cosmos 192 - Orbit

View from above orbital plane
View from above orbital plane
View from above satellite
View from above satellite

Ground track
Ground track

The orbit data is extracted from the following two-line orbital elements,

1 03047U 67116A   21135.92079312  .00000019  00000-0  11094-4 0  9999
2 03047  74.0113 306.4939 0008920 215.7856 144.2711 14.55678100828082
Epoch (UTC): 15 May 2021 22:05:56
Eccentricity: 0.0008920
inclination: 74.0113°
perigee height: 701 km
apogee height: 713 km
right ascension of ascending node: 306.4939°
argument of perigee: 215.7856°
revolutions per day: 14.55678100
mean anomaly at epoch: 144.2711°
orbit number at epoch: 82808

The dashed part of the orbit path shows where the satellite is in the earth's shadow,  

DLR